Погода в Сане-Бенедетто-дель-Тронто

Италия     42°56′55″N   13°52′40″E
темп.,
°C
ветер,
м/с
пор.,
м/с
влажн.,
%
обл.,
%
осадки,
мм/ч
давл.,
гПа
погр.,
м
29 июня, ср
ср2923:00+25ю458498 0.0 1012135
02:00+25зюз33713 0.0 101031
05:00+25ссз22670 0.0 100922
08:00+25с58790 0.0 1011263
11:00+25ссв77820 0.0 1012336
14:00+25св45820 0.0 1011264
17:00+25ссв337978 0.0 1012247
20:00+25ююв347897 0.0 1011155
30 июня, чт
чт3023:00+25ююв22780 0.0 101233
02:00+25юз44760 0.0 101184
05:00+25зюз22710 0.0 101151
08:00+25всв11670 0.0 101242
11:00+26вюв33700 0.0 1012141
14:00+26в56720 0.0 1012232
17:00+26вюв34790 0.0 1011235
20:00+26юв34820 0.0 1011119
1 июля, пт
пт123:00+25ююв34820 0.0 101278
02:00+25ююз45820 0.0 1012119
05:00+25юз11633 0.0 101224
08:00+25ююв33695 0.0 1013112
11:00+25юв5678100 0.0 1012215
14:00+26вюв468199 0.0 1012209
17:00+26вюв458276 0.0 1011159
20:00+26юв11790 0.0 101231
2 июля, сб
сб223:00+26зюз01800 0.0 101411
02:00+26сз57620 0.0 1014107
05:00+24зсз67780 0.0 1015249
08:00+25ссз68670 0.0 1017349
11:00+25с810760 0.0 1017377
14:00+24с1011750 0.0 1017284
17:00+24ссз77690 0.0 1017280
20:00+25ссз57700 0.0 1017191
3 июля, вс
вс323:00+26сз34634 0.0 101752
02:00+25зсз3461100 0.0 101772
05:00+25зсз44615 0.0 101691
08:00+25сз46600 0.0 1017172
11:00+25с79700 0.0 1017295
14:00+26ссв68720 0.0 1017225
17:00+26с34700 0.0 1016134
20:00+26зсз11690 0.0 101617